[[{"header":{"parameterUnit":"m.s-1","parameterCategory":1,"la1":30.2991,"la2":30.254,"lo1":-89.0895,"lo2":-89.0444,"dy":0.0017,"dx":0.0017,"nx":28,"ny":28,"refTime":"2025-03-22T03:00:00:Z","depth":0,"parameterNumber":2,"parameterNumberName":"U-component_of_WINDS"},"data":[0,0,0,0,0,0,0,0,0,0,0,0,0,0,0,0,0,0,0,0,0,0,0,0,0,0,0,0,0,0,0,0,0,0,0,0,0,0,0,0,0,0,0,0,0,0,0,0,0,0,0,0,0,0,0,0,0,0,0.3685,0.3686,0,0.3756,0.3757,0.3758,0.3794,0.3794,0.3794,0.3794,0.3867,0.3869,0.3871,0,0,0,0,0,0,0,0,0,0,0,0,0,0.358,0.3582,0.3685,0.3686,0.3687,0.3756,0.3757,0.3758,0.3794,0.3794,0.3794,0.3794,0.3867,0.3869,0.3871,0,0,0,0,0,0,0,0,0,0,0,0,0,0.3636,0.3583,0.3685,0.3713,0.3716,0.3756,0.3757,0.3758,0.3794,0.3794,0.3794,0.3794,0.3866,0.3869,0.3872,0.3889,0,0,0.3881,0.3882,0,0,0,0,0,0,0,0,0.3633,0.364,0.3708,0.3711,0.3715,0.3766,0.3747,0.3802,0.3794,0.3764,0.3794,0.3794,0.3834,0.3839,0.3853,0.3893,0.3896,0.3881,0.3883,0.3884,0.3885,0,0,0,0,0,0,0,0.3629,0.3637,0.3713,0.3709,0.3713,0.3722,0.373,0.3758,0.3798,0.3767,0.3769,0.3777,0.3836,0.385,0.3855,0.3897,0.3881,0.3883,0.3885,0.3886,0.3954,0.3955,0,0,0,0,0,0,0.362,0.3633,0.3711,0.3715,0.3673,0.3724,0.3733,0.375,0.3798,0.3805,0.3777,0.3779,0.3845,0.3851,0.3857,0.3881,0.3884,0.3887,0.3888,0.3954,0.3954,0.3955,0,0,0,0,0,0,0.3618,0.3627,0.3708,0.3675,0.3686,0.3726,0.3744,0.3751,0.3765,0.3806,0.3813,0.3784,0.3845,0.3853,0.3881,0.3884,0.3888,0.3891,0.3954,0.3954,0.3955,0.3928,0,0,0,0,0,0,0.3615,0.3626,0.3633,0.3675,0.3688,0.373,0.3744,0.3752,0.377,0.3773,0.3814,0.3821,0.3846,0.3876,0.3884,0.3888,0.3893,0.3954,0.3954,0.3954,0.3929,0.3927,0.3926,0,0,0,0,0,0.3611,0.3623,0.3633,0.3642,0.3697,0.373,0.3738,0.3765,0.377,0.3777,0.3803,0.382,0.3882,0.3879,0.3888,0.3893,0.3954,0.3954,0.3954,0.3929,0.3927,0.3926,0,0,0,0,0,0,0.3581,0.3629,0.3641,0.3667,0.3694,0.3736,0.3747,0.3762,0.3789,0.3791,0.3824,0.3833,0.3857,0.3878,0.3873,0.3912,0.392,0.3922,0.3898,0.3896,0.3895,0.389,0.3895,0,0,0,0,0,0.3577,0.36,0.3641,0.366,0.3673,0.3707,0.3723,0.3741,0.3771,0.3783,0.3811,0.3839,0.3865,0.3882,0.3908,0.3932,0.3941,0.3939,0.3938,0.3936,0.3938,0.3951,0.3951,0.3955,0.3955,0.3955,0,0,0.357,0.3599,0.3612,0.3654,0.3678,0.37,0.3717,0.374,0.3757,0.3787,0.3814,0.3836,0.387,0.3895,0.3908,0.3913,0.3938,0.3936,0.3935,0.3937,0.3951,0.3951,0.395,0.3955,0.3955,0.3955,0,0,0.3569,0.3593,0.3611,0.3634,0.3669,0.3692,0.3696,0.3735,0.3751,0.3779,0.3801,0.3822,0.3866,0.3889,0.3906,0.3912,0.3928,0.392,0.3912,0.3925,0.3924,0.3924,0.3926,0.3926,0.3921,0.3921,0.3921,0,0.3556,0.3591,0.3619,0.3641,0.3659,0.3686,0.3704,0.3725,0.3767,0.3779,0.3783,0.3839,0.3863,0.3894,0.3896,0.3909,0.3915,0.3915,0.3922,0.3922,0.3923,0.3925,0.3925,0.3919,0.392,0.392,0.392,0,0.3573,0.3596,0.3607,0.3646,0.3665,0.3685,0.3716,0.3732,0.3749,0.3771,0.3799,0.3829,0.3862,0.387,0.3887,0.3903,0.3905,0.3916,0.3924,0.392,0.3923,0.3924,0.3918,0.3918,0.3918,0.3919,0,0,0.3555,0.3609,0.3612,0.363,0.367,0.3689,0.371,0.3741,0.3754,0.3781,0.38,0.3836,0.3845,0.3865,0.3884,0.3895,0.3898,0.3905,0.3906,0.3902,0.3917,0.3909,0.391,0.3908,0.3908,0.3909,0.3914,0,0.356,0.3599,0.3624,0.3653,0.3675,0.37,0.3719,0.3745,0.3766,0.3787,0.381,0.3835,0.3846,0.3858,0.387,0.3895,0.3901,0.3895,0.3926,0.3927,0.3917,0.3911,0.3904,0.3907,0.3916,0.3916,0.3916,0,0.357,0.3597,0.3627,0.3664,0.3674,0.369,0.3721,0.3741,0.3771,0.3785,0.3806,0.3826,0.3849,0.3855,0.3887,0.3882,0.3896,0.391,0.3911,0.3915,0.3921,0.3916,0.3909,0.391,0.3918,0.3918,0.3918,0,0.3555,0.3598,0.3622,0.3636,0.3679,0.369,0.3708,0.3739,0.3755,0.3782,0.3793,0.3821,0.3837,0.3859,0.3885,0.3887,0.3915,0.3923,0.3927,0.3926,0.3932,0.3932,0.3928,0.3941,0.3941,0.3941,0.3941,0,0.3557,0.3575,0.3615,0.363,0.365,0.3679,0.3699,0.3719,0.3746,0.3765,0.3788,0.3805,0.3839,0.3861,0.3881,0.3904,0.3911,0.3924,0.3929,0.3922,0.392,0.3932,0.3932,0.3941,0.3941,0.3941,0.3941,0,0.3543,0.3571,0.3599,0.3637,0.3647,0.3661,0.3693,0.3709,0.373,0.3754,0.3761,0.3795,0.3821,0.3849,0.3885,0.3899,0.3921,0.3929,0.3911,0.3914,0.3917,0.3916,0.3921,0.3923,0.3933,0.3933,0.3933,0,0.3543,0.3558,0.3597,0.3612,0.3629,0.3652,0.3669,0.3698,0.3715,0.3749,0.376,0.3788,0.3812,0.3852,0.388,0.3907,0.3916,0.3916,0.392,0.3912,0.3916,0.3915,0.3916,0.3915,0.3914,0.3914,0.3914,0,0.354,0.3553,0.3577,0.3605,0.3624,0.3648,0.3672,0.3683,0.3716,0.3734,0.376,0.3779,0.3815,0.3842,0.3873,0.3892,0.3908,0.3912,0.3914,0.3907,0.3896,0.3902,0.3907,0.3912,0.3912,0.3912,0.3912,0.3912,0.3534,0.3547,0.3577,0.3602,0.3624,0.3646,0.3662,0.3685,0.3707,0.3739,0.3754,0.3781,0.381,0.3852,0.3871,0.3892,0.3897,0.3901,0.3902,0.3902,0.39,0.3892,0.3898,0.3898,0.3898,0.3898,0.3898,0,0.3532,0.3552,0.3575,0.3608,0.3628,0.3641,0.3668,0.3684,0.3707,0.3733,0.3755,0.3786,0.3812,0.3841,0.3869,0.388,0.3888,0.3887,0.3886,0.389,0.3894,0.3889,0.3879,0.3879,0.3879,0.3879,0.3879,0.3879,0.3533,0.3557,0.3573,0.3607,0.3627,0.3653,0.3668,0.3688,0.3708,0.3741,0.3763,0.3781,0.3808,0.3838,0.3863,0.387,0.388,0.3876,0.3886,0.3889,0.389,0.3892,0.3887,0.3877,0.3877,0.388,0.388,0.388]},{"header":{"parameterUnit":"m.s-1","parameterCategory":1,"la1":30.2991,"la2":30.254,"lo1":-89.0895,"lo2":-89.0444,"dy":0.0017,"dx":0.0017,"nx":28,"ny":28,"refTime":"2025-03-22T03:00:00:Z","depth":0,"parameterNumber":3,"parameterNumberName":"V-component_of_WINDS"},"data":[0,0,0,0,0,0,0,0,0,0,0,0,0,0,0,0,0,0,0,0,0,0,0,0,0,0,0,0,0,0,0,0,0,0,0,0,0,0,0,0,0,0,0,0,0,0,0,0,0,0,0,0,0,0,0,0,0,0,3.3725,3.3725,0,3.3693,3.3693,3.3692,3.3709,3.371,3.3711,3.3711,3.3673,3.3672,3.367,0,0,0,0,0,0,0,0,0,0,0,0,0,3.3797,3.3795,3.3725,3.3725,3.3724,3.3693,3.3693,3.3692,3.3709,3.371,3.3711,3.3712,3.3674,3.3672,3.367,0,0,0,0,0,0,0,0,0,0,0,0,0,3.3765,3.3795,3.3725,3.3729,3.3729,3.3693,3.3693,3.3692,3.3708,3.371,3.3711,3.3712,3.3675,3.3672,3.3669,3.3626,0,0,3.3661,3.366,0,0,0,0,0,0,0,0,3.3767,3.3762,3.3729,3.3729,3.3729,3.3706,3.3704,3.367,3.3708,3.3716,3.3711,3.3713,3.3683,3.368,3.3671,3.3624,3.3623,3.3661,3.3659,3.3658,3.3657,0,0,0,0,0,0,0,3.3769,3.3764,3.3712,3.3728,3.3728,3.3731,3.3728,3.3697,3.3692,3.3715,3.3717,3.3713,3.3683,3.3673,3.367,3.3622,3.3661,3.3658,3.3657,3.3656,3.3539,3.3538,0,0,0,0,0,0,3.3772,3.3766,3.3713,3.3711,3.3752,3.3729,3.3725,3.3712,3.3693,3.3691,3.3712,3.3714,3.3677,3.3673,3.3668,3.3617,3.3658,3.3655,3.3654,3.3541,3.3539,3.3538,0,0,0,0,0,0,3.3773,3.3767,3.3715,3.3739,3.3732,3.3726,3.3711,3.3711,3.3701,3.369,3.3689,3.3703,3.3678,3.3672,3.3637,3.3616,3.3654,3.3652,3.3543,3.354,3.3538,3.3513,0,0,0,0,0,0,3.3775,3.3767,3.3752,3.3738,3.3731,3.3685,3.371,3.3709,3.3697,3.3699,3.3681,3.368,3.3679,3.3641,3.3634,3.3613,3.3649,3.3544,3.3542,3.3539,3.3516,3.3511,3.3506,0,0,0,0,0,3.3778,3.3745,3.3751,3.3744,3.3712,3.3684,3.3679,3.368,3.3695,3.3679,3.3672,3.368,3.362,3.3637,3.363,3.3607,3.3546,3.3542,3.3539,3.3518,3.3512,3.3506,0,0,0,0,0,0,3.3754,3.3743,3.375,3.3712,3.3699,3.3687,3.3666,3.3673,3.3654,3.3657,3.3657,3.3653,3.3617,3.3608,3.3628,3.3565,3.3585,3.358,3.3571,3.3565,3.356,3.3562,3.3647,0,0,0,0,0,3.3745,3.3724,3.3715,3.3683,3.3676,3.3672,3.366,3.3662,3.3648,3.3642,3.3632,3.3617,3.3594,3.3579,3.3558,3.3515,3.3511,3.3496,3.3491,3.3487,3.3482,3.3459,3.3452,3.3527,3.3527,3.3527,0,0,3.3724,3.3716,3.3703,3.3678,3.3668,3.3645,3.3667,3.3642,3.3625,3.3637,3.3604,3.3597,3.3579,3.354,3.3522,3.3532,3.3461,3.3483,3.348,3.3477,3.3455,3.3448,3.3442,3.3525,3.3525,3.3525,0,0,3.3676,3.3668,3.3641,3.3631,3.3616,3.3614,3.3607,3.3594,3.359,3.3557,3.3566,3.3545,3.3506,3.3494,3.3482,3.3431,3.3437,3.3424,3.3397,3.3374,3.3369,3.3363,3.3345,3.3338,3.3419,3.3419,3.3419,0,3.3653,3.3621,3.3625,3.36,3.3588,3.36,3.3572,3.3561,3.354,3.3531,3.3542,3.3495,3.3484,3.3442,3.343,3.342,3.3412,3.3425,3.3369,3.3364,3.3359,3.3341,3.3334,3.3418,3.3418,3.3418,3.3418,0,3.3592,3.357,3.3549,3.353,3.3516,3.3489,3.3488,3.3473,3.3477,3.3473,3.3439,3.3427,3.3404,3.3394,3.3396,3.3352,3.3359,3.337,3.339,3.3351,3.3334,3.3327,3.3415,3.3416,3.3416,3.3417,0,0,3.3527,3.3512,3.3504,3.3496,3.3482,3.3464,3.3437,3.3416,3.3403,3.3388,3.3365,3.3333,3.3343,3.333,3.3331,3.3312,3.3271,3.3325,3.3324,3.3315,3.3222,3.3214,3.3206,3.3276,3.3275,3.3274,3.3223,0,3.3478,3.3434,3.3437,3.3394,3.3373,3.3385,3.3362,3.3349,3.3345,3.3326,3.3321,3.3298,3.3314,3.3306,3.3287,3.328,3.3252,3.3284,3.3254,3.3252,3.3257,3.3197,3.3188,3.3141,3.3217,3.3216,3.3215,0,3.3415,3.3399,3.3355,3.3345,3.3336,3.3315,3.3296,3.3278,3.3264,3.3263,3.3249,3.3254,3.3225,3.3247,3.3208,3.3229,3.3217,3.3212,3.321,3.3207,3.3231,3.3191,3.3126,3.3118,3.3205,3.3205,3.3206,0,3.3371,3.334,3.3309,3.3302,3.3289,3.3274,3.3267,3.3255,3.3242,3.3225,3.3217,3.3196,3.3185,3.3168,3.3167,3.3183,3.3127,3.3149,3.3124,3.3124,3.3111,3.3112,3.3042,3.3104,3.3104,3.3104,3.3105,0,3.3316,3.3288,3.329,3.3271,3.324,3.3244,3.3213,3.3208,3.3197,3.3176,3.3185,3.3165,3.3165,3.3144,3.3142,3.311,3.3105,3.3102,3.3102,3.3101,3.3101,3.3092,3.3095,3.3103,3.3103,3.3103,3.3104,0,3.3262,3.3262,3.323,3.3221,3.3218,3.3195,3.3187,3.3168,3.3166,3.3139,3.3133,3.3129,3.3105,3.3102,3.3074,3.3073,3.3034,3.3038,3.3039,3.304,3.3015,3.3018,3.2937,3.2926,3.2996,3.2995,3.2995,0,3.3226,3.3205,3.3195,3.3182,3.3176,3.3156,3.3143,3.3146,3.3133,3.3116,3.3099,3.3077,3.3059,3.3021,3.3014,3.2992,3.2995,3.2968,3.2992,3.2992,3.2994,3.2995,3.2993,3.2963,3.2963,3.2962,3.2962,0,3.3162,3.3164,3.3147,3.313,3.3116,3.3102,3.3089,3.3078,3.3079,3.3063,3.3041,3.3027,3.2999,3.2977,3.2956,3.2948,3.2954,3.2955,3.2948,3.2946,3.2948,3.2947,3.3027,3.2956,3.2957,3.2957,3.2957,3.2958,3.3116,3.3099,3.3089,3.3069,3.3061,3.3049,3.3031,3.3027,3.3009,3.2988,3.299,3.2964,3.2951,3.2924,3.2915,3.2894,3.2903,3.2893,3.289,3.2887,3.2885,3.2952,3.289,3.289,3.289,3.289,3.2891,0,3.3053,3.3047,3.303,3.3013,3.2997,3.3007,3.2994,3.298,3.2958,3.2946,3.2929,3.2902,3.2881,3.2873,3.2851,3.2836,3.2839,3.283,3.2831,3.2829,3.2878,3.2886,3.2829,3.2829,3.2829,3.2829,3.2829,3.2829,3.3018,3.2989,3.2989,3.2956,3.295,3.2927,3.2918,3.2907,3.2897,3.2868,3.2851,3.2847,3.2836,3.2814,3.2795,3.2793,3.2784,3.2774,3.2774,3.282,3.2826,3.2832,3.2839,3.2773,3.2773,3.2726,3.2726,3.2725]}]]